STARLINK-5670, 55341

Orbit data source: Space-Track

STARLINK-5670, 55341 is a payload satellite owned by SpaceX/Seattle (US) in LEO that was launched on Thu, 26 Jan 2023 UTC via an FALCON 9 launch vehicle from the Air Force Eastern Test Range (AFETR). Payload-class satellites include a variety of spacecraft equipped with specific instruments for various scientific and technological missions. These include communications satellites like Starlink; space stations such as the ISS; scientific satellites like the Hubble; Earth observation satellites from companies like Planet Labs, Umbra, and HawkEye 360; GPS; miniature CubeSats for education and research; and military/defense satellites.

Loading next visibility...
Identifier
55341, 2023-013L
Orbit
LEO
Country
Flag of USUS
Related business
Manufacturer
SpaceX/Seattle
Mission
Operational Commercial Communications
Bus & Motor
STARLINK, Unknown motor
Mass
305 kg wet, ~290 kg dry
Launch date (UTC)
2023-01-26 (3 years ago)
Launch vehicle
FALCON 9
Launch site
Air Force Eastern Test Range (AFETR)
Object type
Payload
Rocket body
Debris
Shape & HBR
Box + 1 Pan, 10.1 m
Radar Cross Section
13.562 m², Large (>1 m²)

Expand to show TLE details & history
Last TLE update: 3 days ago

TLE from 3 days ago
0 STARLINK-5670
1 55341U 23013L   26170.12978299  .00000083  00000-0  12551-4 0  9999
2 55341  43.0007  90.8477 0001053 253.6966 106.3770 15.27576603187186
Epoch: 2026-06-19T03:06Z
TLE epoch observation values (Epoch: 2026-06-19T03:06:53.250Z)
Latitude
-0°
Longitude
136.76264°
Altitude
483.039 km
Speed
7.626 km/s
True Right ascension
06h 03m 23s
True Declination
0° 00' 00"
Sunlit
Object was in daylight at epoch
Visualization orbit readout
Latitude
Unknown
Longitude
Unknown
Altitude
Unknown
Speed
Unknown
Apparent Right ascension
Unknown
Apparent Declination
Unknown
Sunlit
N/A
Visualization observer readout
Local Sidereal Time
23:27:24
Azimuth
Unknown
Elevation
Unknown
Doppler factor
Unknown
Orbital elements
Apogee altitude
485.727 km
Perigee altitude
484.282 km
Semi-major axis
6,863.141 km
Eccentricity
0.00011
Inclination
43.0007°
RAAN
90.8477°
Arg. of periapsis
253.6966°
True anomaly
106.38858°
Mean anomaly
106.377°
Eccentric anomaly
106.38279°
Mean motion
3.81732 °/min
Orbital period
94.31 mins
BSTAR
0.000012551
Loading maneuver chart data...
Computing Atmospheric mass density...
Loading historical data...
Loading historical data...
Loading historical data...
Loading historical data...
Loading historical data...
Loading historical data...
Loading historical data...

Documentation

Showing up to 5 results
|